Starlink 32431

operational
NORAD ID: 61256 Int'l Des: 2024-175 Owner: SPXS Country: US Constellation: starlink
LEOCIRCULAR

Starlink 32431について

説明を読み込み中...

リアルタイム位置

3D地球を読み込み中...

次回通過

高度履歴

Altitude vs Time

uPlot chart will show altitude changes over time

軌道要素

1 61256U 24175P 25306.06505699 .00028575 00000-0 97441-3 0 9990
2 61256 53.1615 66.8460 0001919 84.4780 275.6440 15.30159298 61912
Epoch: Nov 2, 2025 • Age: 38 hours

現在のステータス

高度 477.0 km
速度 7.63 km/s
衛星直下点 36.82°N, 179.39°E
打ち上げ日 Sep 25, 2024
運用期間 1.1 years
タイプ internet

技術仕様

分類 Payload
質量 730.00 kg
乾燥質量 700.00 kg
総質量 730.00 kg
長さ 0.30 m
直径 4.10 m
スパン 29.00 m
形状 Box + pan
製造者 SPXS
バスタイプ Starlink V2M
フェーズステータス In Orbit
所有者/国 SPXS/US

大規模コンステレーション

Loading constellations...